Tracking 29892 objects as of 21-Nov-2024
HD Live streaming from Space Station
objects crossing your sky now

STARLINK-4194

Track STARLINK-4194 now!
10-day predictions
STARLINK-4194 is classified as:


NORAD ID: 53000
Int'l Code: 2022-076Q
Perigee: 545.9 km
Apogee: 547.8 km
Inclination: 53.2 °
Period: 95.4 minutes
Semi major axis: 6917 km
RCS: Unknown
Launch date: July 7, 2022
Source: United States (US)
Launch site: AIR FORCE EASTERN TEST RANGE (AFETR)
Your satellite tracking list
Your tracking list is empty




NASA's NSSDC Master Catalog

Two Line Element Set (TLE):
1 53000U 22076Q   24324.61558911  .00004030  00000-0  27112-3 0  9999
2 53000  53.2163  66.8090 0001330  86.7107 273.4037 15.08847828131120
Source of the keplerian elements: AFSPC